Showing default

DISKSAT B, 67220

Orbit data source: Space-Track

DISKSAT B, 67220 is a payload satellite owned by USAF STP (US) in LEO that was launched on Thu, 18 Dec 2025 UTC via an ELECTRON launch vehicle from the Wallops Island (WLPIS). Payload-class satellites include a variety of spacecraft equipped with specific instruments for various scientific and technological missions. These include communications satellites like Starlink; space stations such as the ISS; scientific satellites like the Hubble; Earth observation satellites from companies like Planet Labs, Umbra, and HawkEye 360; GPS; miniature CubeSats for education and research; and military/defense satellites.

Loading next visibility...
Identifier
67220, 2025-305B
Orbit
LEO
Country
Flag of USUS
Related business
Manufacturer
AERO
Mission
Operational Defense Technology
Bus & Motor
DISKSAT, EP
Mass
3 kg wet, 3 kg dry
Launch date (UTC)
2025-12-18 (4 months ago)
Launch vehicle
ELECTRON
Launch site
Wallops Island (WLPIS)
Object type
Payload
Rocket body
Debris
Shape & HBR
Cyl, 1.1 m
Radar Cross Section
0.412 m²

Expand to show TLE details & history
Last TLE update: 9 hours ago

TLE from 9 hours ago
0 DISKSAT B
1 67220U 25305B   26102.20590726  .00001282  00000-0  97406-4 0  9997
2 67220  45.0026  73.3823 0003083 168.7261 191.3684 15.08074116 17358
Epoch: 2026-04-12T04:56Z
TLE epoch observation values (Epoch: 2026-04-12T04:56:30.387Z)
Latitude
-0.00002°
Longitude
158.84148°
Altitude
544.176 km
Speed
7.591 km/s
True Right ascension
04h 53m 31s
True Declination
0° 00' 00"
Sunlit
Object was in daylight at epoch
Visualization orbit readout
Latitude
Unknown
Longitude
Unknown
Altitude
Unknown
Speed
Unknown
Apparent Right ascension
Unknown
Apparent Declination
Unknown
Sunlit
N/A
Visualization observer readout
Local Sidereal Time
19:50:32
Azimuth
Unknown
Elevation
Unknown
Doppler factor
Unknown
Orbital elements
Apogee altitude
545.815 km
Perigee altitude
541.547 km
Semi-major axis
6,921.818 km
Eccentricity
0.00031
Inclination
45.0026°
RAAN
73.3823°
Arg. of periapsis
168.7261°
True anomaly
191.36144°
Mean anomaly
191.3684°
Eccentric anomaly
191.36492°
Mean motion
3.76889 °/min
Orbital period
95.52 mins
BSTAR
0.000097406
Loading maneuver chart data...
Computing Atmospheric mass density...
Loading historical data...
Loading historical data...
Loading historical data...
Loading historical data...
Loading historical data...
Loading historical data...
Loading historical data...

Documentation

Showing up to 5 results
|